www.pogodaiklimat.ru

Погода и климат >> Архив погоды >> Германия >> Кемптен


ПОГОДА в Кемптене

  • Прогноз погоды в Кемптене
  • Монитор погоды в Кемптене

АРХИВ ПОГОДЫ в Кемптене

Время (UTC), дата Ветер
(напр.,м/с)
 
Видим.   Явления Облачность Т
(С)
Тd
(С)
f
(%)
Тe
(С)
Тes
(С)
Комфортность P
(гПа)
Po
(гПа)
Тmin
(С)
Tmax
(С)
R
(мм)
R24
(мм)
S
(см)
10 10.08 З 2 55 км в посл. час дождь {морось} 10/10 720 м
[]
+18.7 +16.7 88 +20 +20 1017.7 938.6
11 10.08 ЮЗ 2 50 км в посл. час дождь {морось} 10/10 500 м
[]
+17.4 +15.6 89 +18 +18 1019.1 939.5
12 10.08 З 3 7000 м слаб. дождь {морось} 10/10 450 м
[]
+15.4 +13.5 88 +15 +15 1019.8 939.6 0.7
13 10.08 ЮЗ 2 14 км слаб. дождь {морось} 10/10 1380 м
[]
+15.7 +14.5 93 +16 +16 1019.3 939.2
14 10.08 Ю 3 35 км в посл. час дождь {морось} 10/0 2000 м
[]
+18.3 +15.1 82 +19 +23 1018.0 938.7
15 10.08 ЮЗ 3 60 км {дождь, морось} 4/0 2000 м
[]
+20.7 +15.7 73 +24 +29 комфорт 1017.3 938.7 0.9
16 10.08 З 3 50 км 9/9 1410 м
[]
+20.4 +13.4 64 +23 +23 комфорт 1017.5 938.7
17 10.08 ЮЗ 2-4
{5}
70 км 10/10 1500 м
[]
+19.9 +13.2 65 +22 +22 комфорт 1017.4 938.5
18 10.08 ЮЗ 2 60 км {дождь, морось} 10/10 1500 м
[]
+19.4 +12.9 66 +21 +21 комфорт 1017.9 938.8 +15.3 +21.5
19 10.08 ЮЗ 1 35 км 10/10 1500 м
[]
+18.8 +13.0 69 +21 +21 комфорт 1018.7 939.4
20 10.08 ЮЗ 3 60 км 9/9 1500 м
[]
+18.0 +10.5 62 +18 +18 1019.5 939.9
21 10.08 Ю 2 55 км 9/0
[]
+16.6 +11.0 69 +17 +17 1019.9 939.9
22 10.08 Ю 2 55 км 10/10 1500 м
[]
+16.6 +12.5 77 +17 +17 1020.2 940.2
23 10.08 Ю 2 50 км 10/10 1500 м
[]
+16.7 +12.9 78 +17 +17 1020.0 940.1
00 11.08 ЮВ 2 50 км 9/9 1500 м
[]
+16.2 +13.3 83 +16 +16 1019.9 939.9
01 11.08 ЮВ 2 40 км 9/0 2000 м
[]
+15.7 +13.3 86 +16 +16 1019.8 939.6
02 11.08 В 2-2
{4}
35 км 9/0
[]
+14.9 +13.5 91 +15 +15 1020.0 939.6
03 11.08 В 2 30 км 1/0 2000 м
[]
+13.7 +12.9 95 +13 +13 1020.1 939.4
04 11.08 В 2-2
{2}
19 км ясно +12.7 +12.2 97 +12 +12 1020.3 939.3
05 11.08 В 2-3
{3}
30 км 8/8 1500 м
[]
+13.0 +12.2 95 +12 +12 1019.9 939.0
06 11.08 В 1 40 км ясно +16.8 +13.7 82 +18 +20 1018.3 938.6 +12.5 +19.4
07 11.08 В 1-1
{2}
40 км ясно +19.8 +14.0 69 +23 +28 комфорт 1017.1 938.2
08 11.08 СВ 2-4
{5}
28 км ясно +21.7 +13.5 60 +24 +33 комфорт 1015.7 937.4
09 11.08 В 3 28 км ясно +22.5 +13.5 57 +26 +35 жарко 1014.8 936.8
10 11.08 СВ 3-5
{6}
26 км ясно +23.5 +13.6 54 +26 +38 жарко 1014.1 936.4
11 11.08 СВ 3-6
{6}
30 км 8/0
[]
+23.9 +13.7 53 +26 +34 жарко 1013.1 935.6
12 11.08 В 3 20 км 3/0
[]
+24.6 +15.4 57 +28 +38 душно 1011.9 934.7
13 11.08 В 3-6
{7}
13 км ясно +25.5 +15.8 55 +29 +40 душно 1010.5 933.6
14 11.08 В 3-5
{7}
6000 м дым ясно +26.2 +16.7 56 +30 +38 душно 1009.3 932.7
15 11.08 В 2-6
{7}
10 км ясно +26.0 +15.9 54 +29 +36 душно 1008.5 931.9
16 11.08 В 4-7
{7}
11 км ясно +25.7 +16.2 56 +29 +32 душно 1007.2 930.6
17 11.08 В 2-3
{7}
45 км ясно +25.5 +16.2 56 +29 +30 душно 1006.9 930.3
18 11.08 Ю 2 45 км 6/0
[]
+24.2 +16.6 63 +28 +28 душно 1008.5 931.5 +16.7 +26.5
19 11.08 СЗ 4 40 км 10/10 870 м
[]
+21.3 +16.5 74 +25 +25 комфорт 1012.9 934.8
20 11.08 СЗ 2 5000 м слаб. дождь {морось} 10/10 400 м
[]
+17.6 +16.1 91 +18 +18 1015.9 936.6
21 11.08 ЮЗ 1 17 км слаб. дождь {морось} 10/10 500 м
[]
+17.0 +16.5 97 +18 +18 1016.0 936.6 5
22 11.08 Ю 2 30 км в посл. час дождь {морось} 10/10 1380 м
[]
+16.9 +16.3 96 +17 +17 1015.6 936.2
23 11.08 СЗ 1 17 км 10/10 400 м
[]
+17.1 +16.8 98 +18 +18 1016.7 937.3
00 12.08 З 1 35 км в посл. час дождь {морось} 10/10 300 м
[]
+17.0 +16.1 94 +18 +18 1016.0 936.6 0.7
01 12.08 С 1 29 км 10/10 330 м
[]
+16.9 +16.3 96 +18 +18 1015.9 936.5
02 12.08 СЗ 2 17 км 10/10 570 м
[]
+16.4 +15.7 96 +16 +16 1016.1 936.5
03 12.08 СЗ 2 11 км 10/10 180 м
[]
+15.8 +15.1 96 +16 +16 1017.0 937.1
04 12.08 СЗ 2 3700 м слаб. морось {дождь} 10/10 120 м
[]
+15.2 +14.8 97 +15 +15 1016.8 936.8
05 12.08 С 1-2
{5}
4100 м слаб. дождь {морось} 10/10 90 м
[]
+13.8 +13.1 96 +14 +14 1017.6 937.1
06 12.08 СВ 1 8000 м слаб. дождь {морось} 10/10 200 м
[]
+13.5 +12.7 95 +14 +14 1017.8 937.2 +13.2 +24.3 7
07 12.08 СВ 1-3
{4}
8000 м слаб. дождь {морось} 10/10 270 м
[]
+13.8 +12.9 94 +14 +14 1017.5 937.0
08 12.08 СВ 2 19 км слаб. дождь {морось} 10/10 210 м
[]
+14.2 +13.0 92 +14 +14 1017.0 936.7
09 12.08 С 1 5000 м дождь {морось} 9/9 270 м
[]
+14.4 +13.7 96 +15 +16 1017.6 937.3 5
10 12.08 СЗ 2 5000 м слаб. дождь 9/9 210 м
[]
+14.4 +13.7 96 +14 +15 1017.2 936.9
11 12.08 СЗ 3 4600 м слаб. дождь 10/10 150 м
[]
+14.2 +13.6 96 +13 +13 1017.9 937.5
12 12.08 Ю 1 1600 м дождь {морось} 9/9 90 м
[]
+13.6 +13.3 98 +14 +16 1018.5 937.9 11
13 12.08 В 1 26 км слаб. дождь 10/10 1500 м
[]
+14.3 +13.9 97 +15 +15 1016.9 936.6
14 12.08 В 1 30 км в посл. час дождь {морось} 10/10 270 м
[]
+17.1 +13.3 78 +18 +18 1015.3 935.9
15 12.08 В 2 55 км {дождь, морось} 10/10 500 м
[]
+17.6 +13.8 78 +18 +18 1013.9 934.7 6
16 12.08 ЮВ 1 4100 м дождь 10/10 570 м
[]
+15.9 +14.6 92 +17 +17 1016.2 936.4
17 12.08 В 1 17 км слаб. морось с дождем 9/0 2000 м
[]
+15.2 +14.6 96 +16 +16 1014.8 934.9
18 12.08 СЗ 1 2600 м слаб. морось с дождем 10/10 200 м
[]
+15.3 +14.7 96 +16 +16 1016.2 936.3 +13.4 +18.1 6
19 12.08 СЗ 1 4800 м слаб. дождь 10/10 150 м
[]
+15.1 +14.7 97 +16 +16 1016.6 936.6
20 12.08 Ю 1 3700 м слаб. дождь 9/9 210 м
[]
+15.1 +14.8 98 +16 +16 1017.7 937.6
21 12.08 Ю 2 12 км слаб. дождь 10/10 1500 м
[]
+14.4 +13.7 96 +14 +14 1018.7 938.3 4
22 12.08 Ю 2 35 км в посл. час дождь {морось} 10/10 1410 м
[]
+13.8 +12.7 93 +13 +13 1019.2 938.6
23 12.08 Ю 3-5
{5}
35 км 10/0
[]
+13.6 +12.7 94 +12 +12 1019.3 938.6
00 13.08 ЮЗ 2 45 км в посл. час дождь {морось} 10/0
[]
+13.6 +12.2 91 +13 +13 1019.4 938.7 0.6
01 13.08 ЮЗ 2 40 км в посл. час дождь {морось} 10/10 1500 м
[]
+13.4 +12.2 92 +13 +13 1019.4 938.6
02 13.08 ЮЗ 3 55 км 10/0
[]
+13.0 +11.4 90 +12 +12 1019.3 938.4
03 13.08 Ю 2 40 км {дождь, морось} 6/0
[]
+12.3 +11.0 92 +11 +11 1019.2 938.1 0.0
04 13.08 ЮВ 1 24 км 8/0
[]
+11.1 +10.7 97 +11 +11 1019.7 938.2
05 13.08 В 1 19 км 10/0
[]
+11.5 +11.1 97 +11 +11 1020.1 938.7
06 13.08 ЮВ 2 35 км {дождь, морось} 9/0
[]
+12.3 +11.4 94 +11 +12 1020.3 939.1 +11.0 +15.3 5
07 13.08 ЮВ 2-3
{3}
35 км 10/0
[]
+13.9 +11.3 84 +13 +16 1020.1 939.4
08 13.08 ЮЗ 2 45 км 9/0
[]
+15.4 +11.6 78 +15 +20 1019.7 939.4
09 13.08 З 2 45 км 8/8 900 м
[]
+17.3 +10.0 62 +18 +20 1019.1 939.3
10 13.08 З 2 40 км 10/10 900 м
[]
+17.4 +10.0 62 +18 +18 1018.6 938.9
11 13.08 З 3 50 км 9/9 1500 м
[]
+17.5 +10.2 62 +18 +19 1018.5 938.8
12 13.08 З 2 55 км 10/10 1080 м
[]
+17.7 +8.9 56 +18 +18 1018.1 938.5
13 13.08 З 3 45 км 9/9 1020 м
[]
+17.9 +9.8 59 +18 +19 1017.5 938.0
14 13.08 З 3 50 км 10/10 1080 м
[]
+17.2 +9.7 61 +17 +17 1017.6 937.9
15 13.08 СЗ 2 60 км 9/9 1020 м
[]
+16.9 +10.5 66 +17 +18 1017.2 937.5
16 13.08 СЗ 1 45 км 10/10 720 м
[]
+16.1 +10.9 71 +17 +17 1018.0 938.0
17 13.08 З 1 40 км 10/10 870 м
[]
+15.6 +11.3 76 +16 +16 1018.2 938.1
18 13.08 В 1 30 км в посл. час дождь {морось} 10/10 600 м
[]
+13.4 +11.2 87 +14 +14 1019.3 938.5 +12.3 +18.7 0.3
19 13.08 В 1 29 км в посл. час морось 10/10 1020 м
[]
+13.0 +11.8 92 +13 +13 1019.5 938.6
20 13.08 В 1-2
{3}
35 км 10/0
[]
+13.1 +11.6 91 +13 +13 1019.8 938.9
21 13.08 СЗ 1 5000 м слаб. дождь {морось} 10/10 800 м
[]
+13.1 +12.1 94 +13 +13 1020.1 939.2 0.1
22 13.08 СВ 1 21 км в посл. час дождь {морось} 10/10 210 м
[]
+12.5 +11.5 94 +12 +12 1020.2 939.1
23 13.08 С 1 3100 м дождь {морось} 10/10 240 м
[]
+12.5 +11.8 95 +12 +12 1020.6 939.5
00 14.08 С 1 14 км в посл. час дождь {морось} 10/10 1000 м
[]
+11.8 +10.9 94 +12 +12 1020.7 939.4 2
01 14.08 В 1-1
{1}
1300 м дымка 5/5 1500 м
[]
+11.2 +10.9 98 +11 +11 1020.8 939.3
02 14.08 штиль 0-1
{2}
2300 м в посл. час туман {дымка} 3/3 1500 м
[]
+10.2 +9.9 98 +9 +9 1021.2 939.4
03 14.08 В 1 500 м туман {дымка} 3/3 <50 м
[]
+9.2 +9.0 99 +8 +8 1021.5 939.3 0.0
04 14.08 В 1-1
{2}
200 м туман {дымка} 9/9 30 м
[]
+9.1 +9.1 100 +8 +8 1021.4 939.2
05 14.08 В 1-2
{2}
100 м туман 10/10 <50 м
[]
+9.2 +9.2 100 +8 +8 1021.5 939.3
06 14.08 ЮВ 1 4600 м в посл. час туман {дымка} 9/9 <50 м
[]
+11.0 +10.7 98 +11 +11 1021.0 939.4 +8.7 +13.4 2
07 14.08 Ю 1-2
{3}
16 км ясно +12.2 +10.2 88 +12 +17 1020.9 939.6
08 14.08 ЮВ 1-2
{3}
29 км {морось} ясно +15.3 +8.9 66 +16 +25 1020.1 939.7
09 14.08 СВ 1 35 км 4/4 1200 м
[]
+16.7 +7.3 54 +18 +26 1019.8 939.7
10 14.08 В 1 50 км 4/4 1500 м
[]
+16.4 +7.6 56 +17 +27 1019.6 939.5
11 14.08 С 2 15 км 6/6 1260 м
[]
+17.7 +6.9 49 +18 +24 1019.2 939.4
12 14.08 СВ 1 20 км 5/5 1500 м
[]
+18.3 +6.4 46 +20 +28 1018.6 939.0
13 14.08 С 1-3
{5}
22 км 3/3 1500 м
[]
+18.8 +6.1 43 +20 +31 1018.0 938.6
14 14.08 З 2-5
{5}
17 км ясно +19.7 +7.3 45 +21 +31 комфорт 1017.4 938.3
15 14.08 СЗ 1-2
{5}
35 км ясно +19.6 +6.2 42 +21 +29 комфорт 1017.0 937.9
16 14.08 СЗ 2-3
{4}
27 км ясно +19.3 +5.6 41 +20 +24 1016.9 937.7
17 14.08 ЮВ 1-2
{3}
65 км ясно +19.1 +6.8 45 +21 +22 комфорт 1016.6 937.4
18 14.08 В 1 60 км ясно +16.9 +10.3 65 +18 +18 1017.1 937.4 +10.6 +20.0
19 14.08 В 1-2
{3}
40 км ясно +13.8 +10.5 80 +14 +14 1018.1 937.5
20 14.08 В 2-2
{2}
40 км ясно +11.9 +9.7 86 +11 +11 1018.9 937.7
21 14.08 ЮВ 2-2
{3}
28 км ясно +10.4 +9.2 92 +9 +9 1019.3 937.6
22 14.08 В 2-3
{3}
25 км ясно +10.1 +9.2 94 +8 +8 1019.2 937.5
23 14.08 ЮВ 2-3
{3}
30 км ясно +9.9 +8.7 92 +8 +8 1019.2 937.4
00 15.08 ЮВ 2 30 км ясно +10.1 +8.4 89 +9 +9 1018.9 937.2
01 15.08 ЮВ 3-4
{4}
29 км ясно +9.5 +8.1 91 +7 +7 1018.7 936.8
02 15.08 ЮВ 2-4
{4}
30 км ясно +9.2 +7.9 92 +7 +7 1018.6 936.6
03 15.08 ЮВ 2 35 км 3/0
[]
+9.2 +7.5 89 +7 +7 1018.0 936.1
04 15.08 ЮВ 1 30 км 9/0
[]
+8.7 +7.3 91 +8 +8 1017.7 935.7
05 15.08 ЮВ 1 40 км 10/0
[]
+9.4 +7.1 86 +9 +9 1017.6 935.8
06 15.08 Ю 2 45 км 9/0
[]
+11.4 +7.9 79 +10 +11 1016.9 935.7 +8.5 +16.9
07 15.08 Ю 2 50 км 10/0
[]
+12.9 +8.7 76 +12 +14 1016.5 935.7
08 15.08 Ю 2 50 км 10/0
[]
+15.9 +9.9 68 +16 +20 1015.5 935.6
09 15.08 З 3 35 км в посл. час дождь {морось} 10/0
[]
+16.8 +9.0 60 +17 +21 1015.7 936.0 0.0
10 15.08 ЮЗ 2-3
{6}
70 км в посл. час дождь {морось} 10/0 2000 м
[]
+17.8 +10.1 61 +18 +25 1015.2 935.9
11 15.08 З 2-5
{6}
45 км в посл. час дождь {морось} 10/0 2000 м
[]
+17.5 +11.0 66 +18 +25 1015.3 935.9
12 15.08 З 3 50 км в посл. час дождь {морось} 10/0 2000 м
[]
+17.4 +11.3 67 +17 +23 1015.6 936.2 0.0
13 15.08 ЮЗ 3 29 км в посл. час дождь {морось} 10/10 1080 м
[]
+15.8 +12.2 79 +15 +15 1016.1 936.2
14 15.08 З 3 35 км в посл. час дождь {морось} 10/0
[]
+17.6 +11.7 68 +18 +22 1015.1 935.8
15 15.08 ЮЗ 3 5000 м слаб. дождь {морось} 10/10 660 м
[]
+14.7 +13.0 90 +14 +14 1016.8 936.6 2
16 15.08 Ю 3 28 км в посл. час дождь {морось} 10/0 2000 м
[]
+15.9 +13.3 85 +15 +17 1015.6 935.8
17 15.08 ЮЗ 3-7
{7}
30 км ясно +16.9 +12.6 76 +17 +18 1015.5 936.0
18 15.08 ЮЗ 2 50 км {дождь, морось} 9/9 1000 м
[]
+16.0 +12.9 82 +16 +16 1016.5 936.7 +11.4 +18.5 0.2
19 15.08 ЮВ 2 30 км слаб. морось {дождь} 9/9 400 м
[]
+14.1 +13.2 94 +14 +14 1018.0 937.6
20 15.08 Ю 2 35 км в посл. час дождь {морось} 10/10 1140 м
[]
+14.1 +12.7 91 +14 +14 1018.8 938.3
21 15.08 ЮЗ 3 40 км {дождь, морось} 4/0
[]
+13.4 +12.0 91 +12 +12 1019.4 938.6 2
22 15.08 Ю 1 40 км 10/10 1300 м
[]
+13.0 +11.9 93 +13 +13 1020.0 939.1
23 15.08 ЮЗ 2 60 км 10/10 1170 м
[]
+13.9 +12.0 88 +13 +13 1019.7 939.0
00 16.08 ЮЗ 2 45 км в посл. час дождь {морось} 8/8 600 м
[]
+13.8 +11.8 88 +13 +13 1019.7 939.0 0.0
01 16.08 Ю 2-3
{6}
30 км 10/0
[]
+13.1 +11.7 91 +12 +12 1020.3 939.4
02 16.08 Ю 2 35 км в посл. час морось 10/10 1500 м
[]
+13.1 +11.6 91 +12 +12 1020.6 939.6
03 16.08 Ю 2 30 км {морось} 10/10 1230 м
[]
+13.3 +11.7 90 +13 +13 1020.7 939.8 0.0
04 16.08 Ю 1 40 км 10/10 1140 м
[]
+13.1 +11.1 88 +13 +13 1020.9 939.9
05 16.08 Ю 2 5000 м слаб. морось с дождем 10/10 930 м
[]
+12.8 +11.4 91 +12 +12 1021.0 939.9
06 16.08 Ю 2 24 км в посл. час дождь {морось} ясно +13.0 +11.2 89 +12 +14 1020.7 939.7 +12.4 +16.0 2
07 16.08 Ю 2-4
{5}
29 км ясно +14.5 +11.3 81 +14 +19 1020.5 939.9
08 16.08 Ю 2-4
{5}
70 км 3/3 1170 м
[]
+15.8 +11.0 73 +16 +21 1020.0 939.8
09 16.08 ЮЗ 1 45 км 3/3 800 м
[]
+16.3 +10.6 69 +17 +26 1019.8 939.7
10 16.08 СЗ 2 60 км 8/8 1110 м
[]
+17.0 +9.9 63 +17 +20 1019.4 939.5
11 16.08 С 2 22 км 5/5 1170 м
[]
+19.1 +10.0 56 +20 +28 1018.4 939.1
12 16.08 СЗ 2 70 км 9/9 1260 м
[]
+19.1 +10.1 56 +20 +22 1017.8 938.6
13 16.08 СЗ 1 35 км 8/8 1500 м
[]
+21.4 +10.6 50 +23 +26 комфорт 1016.5 938.0
14 16.08 С 2 45 км 9/9 1500 м
[]
+20.1 +9.2 49 +22 +23 комфорт 1016.5 937.6
15 16.08 С 2 30 км 10/0
[]
+20.9 +8.9 46 +23 +26 комфорт 1015.7 937.1
16 16.08 СВ 2 25 км 9/0
[]
+20.5 +8.2 45 +22 +24 комфорт 1015.6 936.9
17 16.08 СВ 1-2
{3}
55 км ясно +20.5 +8.1 45 +23 +24 комфорт 1015.0 936.3
18 16.08 СВ 1 50 км 3/0
[]
+18.0 +11.8 67 +19 +19 1015.6 936.3 +13.0 +21.4
19 16.08 В 2 45 км 4/0
[]
+14.4 +12.1 86 +14 +14 1016.8 936.5
20 16.08 В 2 30 км 6/0
[]
+12.6 +11.1 91 +12 +12 1017.5 936.6
21 16.08 В 2 30 км 10/0
[]
+11.7 +10.6 93 +10 +10 1017.6 936.5
22 16.08 ЮВ 2 25 км 10/0
[]
+11.4 +10.6 95 +10 +10 1017.7 936.5
23 16.08 ЮВ 2 30 км 10/0
[]
+12.3 +10.5 89 +11 +11 1017.1 936.2
00 17.08 ЮВ 2 26 км 8/0
[]
+12.0 +10.3 89 +11 +11 1016.9 935.9
01 17.08 ЮВ 2 30 км 10/0
[]
+11.5 +9.9 90 +10 +10 1017.1 935.9
02 17.08 ЮВ 3-4
{4}
35 км 8/0
[]
+11.7 +9.4 86 +10 +10 1016.8 935.7
03 17.08 ЮВ 3 50 км 10/0
[]
+11.6 +9.0 84 +10 +10 1016.5 935.4
04 17.08 ЮВ 2 40 км 9/0
[]
+10.8 +8.5 86 +9 +9 1016.7 935.3
05 17.08 ЮВ 2 40 км 10/0
[]
+11.7 +8.4 80 +11 +11 1016.3 935.2
06 17.08 ЮВ 2 45 км 10/0
[]
+13.1 +8.9 76 +12 +13 1016.0 935.3 +10.8 +17.9
07 17.08 ЮВ 2 40 км 10/0
[]
+16.2 +10.7 70 +16 +19 1015.6 935.8
08 17.08 Ю 1 50 км 10/0
[]
+17.2 +10.9 66 +18 +23 1015.4 935.9
09 17.08 Ю 2 55 км 10/0
[]
+20.4 +11.4 56 +23 +28 комфорт 1014.4 935.8
10 17.08 ЮЗ 2 60 км 10/0
[]
+22.8 +11.3 48 +25 +32 комфорт 1013.7 935.8

 

Местоположение метеостанции Кемптен (Германия): широта 47.72 долгота 10.33 высота над уровнем моря 705 м.

В архиве по умолчанию представлена погода в Кемптене за последнюю неделю. Архивные данные за месяц целиком и за предыдущие месяцы, начиная с января 2011 года, Вы можете получить, выбрав интересующий диапазон дат из раскрывающегося списка и нажав кнопку "Ввод!".


*Определитесь, кто Вы:
робот инопланетянин человек

Внимание! Время в таблицах - всемирное. Для получения местного времени необходимо прибавить поправку, которая равна 1 ч.

Смотрите также архив погоды в соседних городах и на ближайших метеорологических станциях:

Погода в Херлацхофене (Германия) (24 км)
Погода в Оберстдорфе (Германия) (36 км)
Погода в Ройтте (Австрия) (39 км)
Погода в Альтенштадте (Германия) (42 км)
Погода в Альбершвенде (Австрия) (46 км)
Погода в Брегенце (Австрия) (50 км)
Погода в Хоэнпайсенберге (Германия) (52 км)
Погода в Варте (Австрия) (53 км)
Погода в Дорнбирне (Австрия) (55 км)
Погода в Ландсберге (Германия) (58 км)

Пояснения к столбцам:

Ветер - указаны скорость ветра в м/с - средняя за 10 мин, порывы в срок и между сроками (в фигурных скобках) и направление, откуда дует ветер: С - северный, СВ - северо-восточный, В - восточный, ЮВ - юго-восточный, Ю - южный, ЮЗ - юго-западный, З - западный, СЗ - северо-западный.
Видимость - горизонтальная дальность видимости в метрах или километрах. При видимости от 1 до 10 км при отсутствии осадков обычно наблюдается дымка, при ухудшении видимости до 1 км и менее - туман. В сухую погоду видимость может ухудшаться дымом, пылью или мглою.
Явления - указаны атмосферные явления, наблюдавшиеся в срок или в последний час перед сроком; фигурными скобками обозначены явления, наблюдавшиеся между сроками (за 1-3 часа до срока); квадратными скобками обозначены град или гололедные отложения с указанием их диаметра в мм.
Облачность - указаны через наклонную черту общая и нижняя облачность в баллах и высота нижней границы облаков в метрах; квадратными скобками обозначены формы облаков: Ci - перистые, Cs - перисто-слоистые, Cc - перисто-кучевые, Ac - высококучевые, As - высокослоистые, Sc - слоисто-кучевые, Ns - слоисто-дождевые, Cu - кучевые, Cb - кучево-дождевые. Подробнее классификацию облаков см. в Атласе облаков (PDF).
T - Температура воздуха - температура, измеренная на высоте 2 м над землей.
Td - Температура точки росы - температура, при понижении до которой содержащийся в воздухе водяной пар достигнет насыщения.
f - Относительная влажность воздуха - влажноcть воздуха, измеренная на высоте 2 м над землей.
Te - Эффективная температура - температура, которую ощущает одетый по сезону человек в тени. Характеристика душности погоды. При расчете учитывается влияние влажности воздуха и скорости ветра на теплоощущения человека.
Tes - Эффективная температура на солнце - температура, которую ощущает человек, с поправкой на солнечный нагрев. Характеристика знойности погоды. Зависит от высоты солнца над горизонтом, облачности и скорости ветра. Ночью, в пасмурную погоду, а также при ветре 12 м/с и более поправка равна нулю.
P - Атмосферное давление - приведенное к уровню моря атмосферное давление.
Po - Атмосферное давление - измеренное на уровне метеостанции атмосферное давление.
Tmin - Минимальная температура - минимум температуры воздуха на высоте 2 м над землей.
Tmax - Максимальная температура - максимум температуры воздуха на высоте 2 м над землей.
R - Количество осадков - Количество выпавших осадков за период времени, мм. При наведении курсора мыши на число - период времени, за который выпало указанное количество осадков.
R24 - Количество осадков - Количество выпавших осадков за 24 часа, мм.
S - Снежный покров - Высота снежного покрова, см. При наведении курсора мыши на число - состояние снежного покрова и степень покрытия местности в баллах.